Regional Weather Roundup
Issued by NWS Jackson, KY

Home | Current Version | Previous Version | Text Only | Print | Product List | Glossary Off
Versions: 1 2 3 4 5 6 7 8 9 10 11 12 13 14 15 16 17 18 19 20 21 22 23 24 25 26 27 28

000
ASUS43 KJKL 180210
RWRJKL

EAST KENTUCKY HOURLY WEATHER ROUNDUP
NATIONAL WEATHER SERVICE JACKSON KY
900 PM EST FRI NOV 17 2017

NOTE: "FAIR" INDICATES FEW OR NO CLOUDS BELOW 12,000 FEET WITH
NO SIGNIFICANT WEATHER AND/OR OBSTRUCTIONS TO VISIBILITY.

* THESE REPORTS ARE NOT UNDER NWS QUALITY CONTROL AND MAY NOT
  REPORT WEATHER SUCH AS PRECIPITATION AND FOG.

KYZ079-080-083-085-087-088-110-112-115-119-120-180300
...EASTERN KENTUCKY...

CITY           SKY/WX    TMP DP  RH WIND       PRES   REMARKS
JACKSON        PTCLDY    50  28  42 S5        29.97F
LONDON         CLOUDY    45  35  68 S5        29.97F
SOMERSET*      MOCLDY    52  34  50 S5        29.96F
MONTICELLO*    PTCLDY    57  35  43 SE8       29.96F
WILLIAMSBURG*  CLOUDY    48  36  61 SE6       29.98F
MIDDLESBORO*   PTCLDY    42  37  80 CALM      30.03S
HARLAN APT*    PTCLDY    45  32  61 CALM      30.01S
PIKE CO APT*     N/A     48  29  47 S5        29.99F
BIG SANDY APT* CLEAR     47  30  53 S5        29.98F
MOREHEAD APT*  PTCLDY    46  28  49 SE6       29.97F
$$

KYZ035-036-041-042-044-050-067-078-099-180300
...CENTRAL KENTUCKY...

CITY           SKY/WX    TMP DP  RH WIND       PRES   REMARKS
MT STERLING*   PTCLDY    46  32  57 SE8       29.95F
FLEMING/MASON* CLOUDY    43  32  64 CALM      29.95F
DANVILLE*      CLOUDY    43  36  75 S3        29.93F
LEXINGTON      CLOUDY    47  35  63 SE7       29.92F
FRANKFORT      MOCLDY    47  35  63 SE6       29.89F
LOUISVILLE     CLOUDY    51  39  63 SE8       29.87F
LEBANON*         N/A     52  37  58 SE12      29.89F
GLASGOW*       PTCLDY    56  35  46 S7        29.90F
BOWLING GREEN  CLOUDY    60  35  39 S10       29.88F
$$

KYZ091>093-OHZ055-061-077-WVZ005-015-034-035-042-180300
...SOUTHERN OHIO/WEST VIRGINIA...

CITY           SKY/WX    TMP DP  RH WIND       PRES   REMARKS
COVINGTON      CLOUDY    48  36  63 SE12      29.88F
COLUMBUS       CLOUDY    42  32  67 SE7       29.94F
DAYTON         CLOUDY    43  34  70 SE13      29.88F
WILMINGTON     CLOUDY    43  33  68 S6        29.92F
HUNTINGTON     CLEAR     41  29  62 E3        29.97F
CHARLESTON     CLEAR     38  29  70 CALM      30.00F
PINEVILLE*       N/A     37  32  81 MISG      30.08F
BECKLEY        CLEAR     46  23  40 SE10      30.03F
BLUEFIELD      CLOUDY    48  18  30 VRB7      30.05F
LOGAN CO APT*    N/A     48  25  40 CALM      30.00S
$$

VAZ002-007-008-TNZ017-027-036-066-071-180300
...SOUTHWEST VIRGINIA/EAST TENNESSEE...

CITY           SKY/WX    TMP DP  RH WIND       PRES   REMARKS
WISE*          PTCLDY    52  27  37 S12G17    30.04S
JONESVILLE*      N/A     39  34  81 CALM      30.06R
ABINGDON*      CLEAR     45  30  56 CALM      30.05F
BRISTOL        CLEAR     39  31  72 CALM      30.04F
MORRISTOWN*    CLEAR     46  36  66 CALM      30.03S
SEVIERVILLE*   CLEAR     41  37  87 CALM      30.04S
KNOXVILLE      MOCLDY    48  41  76 NE5       30.02F
LAFOLLETTE*    CLEAR     45  39  81 CALM      30.05F
OAK RIDGE      PTCLDY    49  41  74 CALM      30.04F
CROSSVILLE     PTCLDY    53  35  50 VRB5      30.02F
NASHVILLE      CLOUDY    61  33  35 S17       29.91F
$$

...KEY TO REMARKS...
VSB - VISIBILITY IN MILES
WCI - WIND CHILL INDEX
HX  - HEAT INDEX

$$




USA.gov is the U.S. government's official web portal to all federal, state and local government web resources and services.